Zurück zum Katalog

SL-14 DEB

AktivPO
NORAD 26024·DEBRIS·🇷🇺 Russia

Gestartet Sep 28, 1991 von Plesetsk Cosmodrome

Loading…

Nächste Überflüge (nächste 24 Stunden)

TLE

AktuellSource: Space-Track

Epoche: Sep 13, 2026, 19:07 UTC

1 26024U 91068AK  26256.79685069  .00000619  00000-0  42420-2 0  9999
2 26024  82.7009   8.9367 0284705 178.3651 337.6299 12.34937704583513

Verfolge SL-14 DEB in Echtzeit mit AllMySat

Download on the App Store